星链-4679 (STARLINK-4679 )

导读

STARLINK-4679是美国太空探索技术公司SpaceX星链星座的卫星,于2022年9月11日发射,属于星链组网扩容任务的组成部分。星链通过低轨卫星组网构建全球卫星互联网,该卫星与同批次卫星共同推进星座覆盖,为全球提供宽带互联网接入服务,是星链大规模部署中的一环,服务于天地一体化通信网络建设。

基本信息
目录编号:
53782
目录名称:
STARLINK-4679
国际标识:
2022-111K
轨道中心:
EARTH
卫星名称:
星链-4679
卫星全名:
星链-4679 (STARLINK-4679 )
卫星状态:
在轨 (已飞行1379 天)
发射日期:
2022-09-11 UTC
国别 :
美国 (US)
星等 :
--
轨道信息
数据来源 国际轨道数据
星历时间: 2026-06-21T08:58:50+0800
7小时前
查看轨道信息
半长轴: 6626.195km
偏心率: 0.0000462
轨道倾角: 53.211°
近地点辐角 344.142°
升交点赤经 136.303°
平近点角 15.960°
近地点: 247.751km
远地点: 248.365km
周期: 89.466分钟
每日圈数: 16.095574
详细信息
固有亮度:
5
最大亮度:
2.5
卫星平台:
Starlink v1.5
覆盖范围:
全球
运营商:
太空探索技术公司
运营商所在国:
美国
制造商(研发单位):
太空探索技术公司
制造商所在国:
美国
使用方式:
暂无
卫星简介
星链(Starlink)计划是由太空探索技术公司(SpaceX)提出的一个巨型低轨卫星互联网星座项目,计划在2019年至2024年间在太空搭建由约1.2万颗卫星组成的“星链”网络,其中1584颗将部署在地球上空550千米处的近地轨道,并从2020年开始工作。该卫星仍在工作。
2D轨道图
3D轨道图
轨道高度分析图
轨道倾角分析图
轨道综合分析图
查看轨道综合分析图